Waycross, GA

4:01 AM EST on February 14, 2016 (GMT -0500)
Waycross-Ware County

Weather History for KAYS - April, 2013

Change the Weather History Date:

Thursday, April 4, 2013

  Actual Average (KAMG) Record (KAMG)
Temperature  
Mean Temperature 61 °F 64 °F  
Max Temperature 69 °F 76 °F 90 °F (1963)
Min Temperature 53 °F 51 °F 32 °F (1971)
Degree Days  
Heating Degree Days 4 3  
Month to date heating degree days 13  
Since 1 July heating degree days 1602  
Cooling Degree Days 0 2  
Month to date cooling degree days 8  
Year to date cooling degree days 62  
Growing Degree Days 11 (Base 50)    
Moisture  
Dew Point 59 °F    
Average Humidity 96    
Maximum Humidity 100    
Minimum Humidity 88    
Precipitation  
Precipitation 0.00 in 0.10 in 2.12 in (1980)
Month to date precipitation 0.44  
Year to date precipitation 13.25  
Snow  
Snow 0.00 in 0.00 in 0.00 in ()
Month to date snowfall 0.0  
Since 1 July snowfall 0.1  
Snow Depth -    
Sea Level Pressure  
Sea Level Pressure 29.95 in    
Wind  
Wind Speed 10 mph (NE)    
Max Wind Speed 18 mph    
Max Gust Speed 22 mph    
Visibility 6 miles    
Events      
T = Trace of Precipitation, MM = Missing Value Source: NWS Daily Summary

Daily Weather History Graph

Daily Weather History Graph

Search for Another Location

Airport or City:

Trip Planner

Search our weather history database for the weather conditions in past years. The results will help you decide how hot, cold, wet, or windy it might be!

Date:

Astronomy

Apr. 04, 2013 Rise Set
Actual Time 7:14 AM EDT 7:51 PM EDT
Civil Twilight 6:49 AM EDT 8:15 PM EDT
Nautical Twilight 6:21 AM EDT 8:44 PM EDT
Astronomical Twilight 5:51 AM EDT 9:13 PM EDT
Moon 3:18 AM EDT (4/4) 2:28 PM EDT (4/4)
Length of Visible Light 13h 25m
Length of Day
12h 36m
Waning Crescent, 34% of the Moon is Illuminated
Apr 4
Waning Crescent
Apr 10
New
Apr 18
First Quarter
Apr 25
Full
May 2
Last Quarter

Hourly Weather History & Observations

Time (EDT) Temp. Dew Point Humidity Pressure Visibility Wind Dir Wind Speed Gust Speed Precip Events Conditions
12:15 AM 57.2 °F 55.4 °F 94% 30.08 in 10.0 mi ENE 12.7 mph - N/A   Overcast
12:35 AM 57.2 °F 55.4 °F 94% 30.09 in 10.0 mi ENE 10.4 mph - N/A   Overcast
12:55 AM 57.2 °F 55.4 °F 94% 30.10 in 10.0 mi ENE 13.8 mph - N/A   Overcast
1:15 AM 57.2 °F 55.4 °F 94% 30.09 in 7.0 mi East 12.7 mph 18.4 mph N/A   Overcast
1:35 AM 57.2 °F 55.4 °F 94% 30.07 in 5.0 mi East 10.4 mph - N/A   Overcast
1:55 AM 57.2 °F 55.4 °F 94% 30.07 in 7.0 mi East 12.7 mph - N/A   Overcast
2:15 AM 57.2 °F 55.4 °F 94% 30.06 in 7.0 mi East 11.5 mph 19.6 mph N/A   Overcast
2:35 AM 57.2 °F 55.4 °F 94% 30.05 in 7.0 mi East 12.7 mph 20.7 mph N/A   Overcast
2:55 AM 57.2 °F 55.4 °F 94% 30.03 in 7.0 mi East 12.7 mph 18.4 mph N/A   Overcast
3:15 AM 57.2 °F 55.4 °F 94% 30.03 in 7.0 mi East 15.0 mph 19.6 mph N/A   Overcast
3:35 AM 57.2 °F 55.4 °F 94% 30.02 in 7.0 mi East 15.0 mph 18.4 mph N/A   Overcast
3:55 AM 57.2 °F 55.4 °F 94% 30.01 in 7.0 mi East 16.1 mph 20.7 mph N/A   Overcast
4:15 AM 57.2 °F 55.4 °F 94% 30.01 in 7.0 mi East 12.7 mph 19.6 mph N/A   Overcast
4:35 AM 57.2 °F 55.4 °F 94% 30.00 in 7.0 mi East 16.1 mph - N/A   Overcast
4:55 AM 57.2 °F 55.4 °F 94% 29.99 in 7.0 mi East 18.4 mph 21.9 mph N/A   Overcast
5:15 AM 57.2 °F 55.4 °F 94% 29.99 in 5.0 mi East 15.0 mph 20.7 mph N/A   Overcast
5:35 AM 57.2 °F 55.4 °F 94% 29.99 in 7.0 mi East 13.8 mph 20.7 mph N/A   Overcast
5:55 AM 57.2 °F 55.4 °F 94% 29.98 in 7.0 mi East 15.0 mph 19.6 mph N/A   Overcast
6:15 AM 57.2 °F 55.4 °F 94% 29.99 in 7.0 mi East 12.7 mph - N/A   Overcast
6:35 AM 57.2 °F 57.2 °F 100% 29.98 in 7.0 mi East 11.5 mph - N/A   Overcast
6:55 AM 57.2 °F 57.2 °F 100% 29.98 in 7.0 mi East 10.4 mph - N/A   Overcast
7:15 AM 57.2 °F 57.2 °F 100% 29.97 in 7.0 mi East 10.4 mph - N/A   Overcast
7:35 AM 57.2 °F 57.2 °F 100% 29.97 in 7.0 mi East 11.5 mph - N/A   Overcast
7:55 AM 57.2 °F 57.2 °F 100% 29.97 in 7.0 mi East 11.5 mph - N/A   Overcast
8:15 AM 59.0 °F 57.2 °F 94% 29.97 in 5.0 mi East 10.4 mph - N/A   Overcast
8:35 AM 59.0 °F 57.2 °F 94% 29.97 in 5.0 mi East 12.7 mph - N/A   Overcast
8:55 AM 59.0 °F 59.0 °F 100% 29.97 in 4.0 mi East 9.2 mph - N/A   Overcast
9:15 AM 59.0 °F 59.0 °F 100% 29.98 in 4.0 mi East 9.2 mph - N/A   Overcast
9:35 AM 60.8 °F 59.0 °F 94% 29.97 in 4.0 mi ENE 9.2 mph - N/A   Overcast
9:55 AM 60.8 °F 59.0 °F 94% 29.96 in 4.0 mi ENE 9.2 mph - N/A   Overcast
10:15 AM 60.8 °F 60.8 °F 100% 29.97 in 2.0 mi Calm Calm - N/A   Overcast
10:35 AM 60.8 °F 60.8 °F 100% 29.96 in 4.0 mi ENE 8.1 mph - N/A   Overcast
10:55 AM 60.8 °F 60.8 °F 100% 29.96 in 5.0 mi East 8.1 mph - N/A   Overcast
11:15 AM 62.6 °F 62.6 °F 100% 29.95 in 4.0 mi East 8.1 mph - N/A   Overcast
11:35 AM 62.6 °F 62.6 °F 100% 29.94 in 5.0 mi East 9.2 mph - N/A   Overcast
11:55 AM 64.4 °F 62.6 °F 94% 29.94 in 5.0 mi East 5.8 mph - N/A   Overcast
12:35 PM 64.4 °F 64.4 °F 100% 29.93 in 5.0 mi East 4.6 mph - N/A   Overcast
12:55 PM 66.2 °F 64.4 °F 94% 29.92 in 5.0 mi East 4.6 mph - N/A   Overcast
1:15 PM 66.2 °F 64.4 °F 94% 29.91 in 5.0 mi ENE 4.6 mph - N/A   Overcast
1:35 PM 68.0 °F 64.4 °F 88% 29.90 in 7.0 mi ENE 3.5 mph - N/A   Overcast
1:55 PM 68.0 °F 66.2 °F 94% 29.89 in 7.0 mi Calm Calm - N/A   Overcast
2:15 PM 69.8 °F 66.2 °F 88% 29.89 in 7.0 mi Calm Calm - N/A   Overcast
2:35 PM 69.8 °F 66.2 °F 88% 29.89 in 7.0 mi North 5.8 mph - N/A   Overcast
2:55 PM 68.0 °F 66.2 °F 94% 29.88 in 4.0 mi Calm Calm - N/A   Overcast
3:15 PM 68.0 °F 66.2 °F 94% 29.87 in 7.0 mi NNE 4.6 mph - N/A   Overcast
3:35 PM 68.0 °F 66.2 °F 94% 29.86 in 1.0 mi East 4.6 mph - N/A   Overcast
3:55 PM 66.2 °F 66.2 °F 100% 29.85 in 4.0 mi North 4.6 mph - N/A   Overcast
4:15 PM 66.2 °F 66.2 °F 100% 29.86 in 0.5 mi North 5.8 mph - N/A   Overcast
4:35 PM 66.2 °F 66.2 °F 100% 29.85 in 4.0 mi NNW 5.8 mph - N/A   Overcast
4:55 PM 69.8 °F 66.2 °F 88% 29.85 in 10.0 mi NW 4.6 mph - N/A   Overcast
5:15 PM 69.8 °F 66.2 °F 88% 29.86 in 10.0 mi North 6.9 mph - N/A   Overcast
5:35 PM 68.0 °F 66.2 °F 94% 29.86 in 7.0 mi NNW 9.2 mph - N/A   Overcast
5:55 PM 66.2 °F 64.4 °F 94% 29.87 in 7.0 mi NNW 13.8 mph - N/A   Overcast
6:15 PM 64.4 °F 62.6 °F 94% 29.87 in 7.0 mi North 13.8 mph - N/A   Overcast
6:35 PM 62.6 °F 60.8 °F 94% 29.88 in 5.0 mi NNW 13.8 mph - N/A   Overcast
6:55 PM 60.8 °F 60.8 °F 100% 29.88 in 5.0 mi NNW 8.1 mph - N/A   Overcast
7:15 PM 59.0 °F 57.2 °F 94% 29.89 in 5.0 mi NNW 12.7 mph - N/A   Overcast
7:35 PM 57.2 °F 57.2 °F 100% 29.89 in 5.0 mi North 8.1 mph - N/A   Overcast
7:55 PM 57.2 °F 57.2 °F 100% 29.89 in 4.0 mi NNW 9.2 mph - N/A   Overcast
8:15 PM 55.4 °F 55.4 °F 100% 29.89 in 3.0 mi North 9.2 mph - N/A   Overcast
8:35 PM 55.4 °F 55.4 °F 100% 29.90 in 4.0 mi North 10.4 mph - N/A   Overcast
8:55 PM 55.4 °F 53.6 °F 94% 29.89 in 3.0 mi North 9.2 mph - N/A   Overcast
9:15 PM 55.4 °F 53.6 °F 94% 29.90 in 3.0 mi North 9.2 mph - N/A   Overcast
9:35 PM 53.6 °F 53.6 °F 100% 29.92 in 5.0 mi North 4.6 mph - N/A   Overcast
9:55 PM 53.6 °F 53.6 °F 100% 29.93 in 2.5 mi NNE 4.6 mph - N/A   Overcast
10:15 PM 53.6 °F 53.6 °F 100% 29.94 in 2.5 mi NE 5.8 mph - N/A   Overcast
10:35 PM 53.6 °F 53.6 °F 100% 29.94 in 3.0 mi NE 3.5 mph - N/A   Overcast
10:55 PM 53.6 °F 53.6 °F 100% 29.94 in 7.0 mi North 3.5 mph - N/A   Overcast
11:15 PM 53.6 °F 53.6 °F 100% 29.94 in 3.0 mi NE 3.5 mph - N/A   Overcast
11:35 PM 53.6 °F 51.8 °F 94% 29.93 in 7.0 mi NE 3.5 mph - N/A   Overcast
11:55 PM 53.6 °F 51.8 °F 94% 29.92 in 5.0 mi NE 4.6 mph - N/A   Overcast